SCP
0 -0 -0 -0 -0 -0 -0 0 0 0 0 -0 -0 -0 -0 -0 -0 -0 -0 -0 -0 0 0 0 0 0 0 0 0 0 0 0 0 0 0 0 0 0 0 0 0 0 0
-0 -0 -0 -0 -0 -0 0 0 0 0 -0 -0 -0 0 -0 -0 0 -0 -0 -0 -0 0 0 0 0 0 -0 0 -0 -0 0 0 0 0 0 0 0 0 0 0 0 0 0
-0 -0 -0 -0 -0 -0 0 0 0 0 -0 -0 -0 -0 -0 0 -0 -0 -0 -0 -0 0 0 -0 0 0 -0 0 -0 -0 -0 0 0 0 0 0 0 0 0 0 0 0 0
-0 -0 -0 -0 -0 -0 0 0 0 0 -0 -0 -0 -0 -0 -0 -0 -0 -0 -0 -0 0 0 0 -0 0 0 -0 -0 -0 0 0 0 0 0 0 0 0 0 0 0 0 0
-0 -0 -0 -0 0 0 0 0 0 0 0 -0 -0 -0 -0 -0 -0 -0 -0 0 -0 -0 -0 0 0 0 -0 -0 -0 -0 -0 0 0 0 0 0 0 0 0 0 0 0 0
-0 -0 0 -0 -0 0 0 0 0 0 0 0 -0 -0 -0 -0 -0 -0 -0 -0 0 -0 0 0 -0 0 -0 -0 -0 -0 -0 0 0 0 0 0 0 0 0 0 0 0 0
-0 0 0 -0 -0 -0 0 0 0 0 0 0 -0 -0 -0 -0 -0 0 0 -0 -0 -0 -0 -0 -0 0 0 0 -0 -0 -0 0 0 0 0 0 0 0 0 -0 0 0 0
0 0 0 -0 -0 -0 -0 0 0 0 0 0 0 -0 -0 -0 -0 -0 -0 0 0 -0 -0 -0 -0 -0 -0 -0 0 -0 -0 -0 -0 0 -0 -0 -0 -0 -0 -0 -0 -0 0
0 0 0 0 0 -0 -0 -0 0 0 0 0 0 -0 -0 -0 -0 0 -0 0 0 0 -0 -0 -0 -0 -0 -0 -0 -0 -0 -0 -0 -0 -0 -0 -0 0 -0 -0 -0 -0 -0
0 0 0 0 0 0 0 0 0 0 0 0 0 0 0 -0 -0 -0 0 -0 -0 -0 0 -0 -0 -0 -0 -0 -0 -0 -0 0 0 0 -0 -0 -0 -0 0 0 -0 -0 -0
0 0 0 0 0 0 0 0 0 0 0 0 0 0 0 -0 -0 -0 0 0 -0 -0 -0 0 -0 -0 -0 -0 -0 -0 -0 -0 0 0 0 0 -0 -0 -0 0 -0 -0 -0
0 1 0 1 0 0 0 0 0 0 0 0 0 0 0 0 -0 -0 0 0 0 0 0 0 -0 -0 -0 -0 -0 -0 0 -0 0 0 0 0 0 0 -0 -0 -0 -0 0
0 0 0 0 0 0 0 0 0 0 0 0 0 0 0 0 0 0 0 0 0 0 0 0 0 0 0 0 0 -0 0 0 0 -0 0 0 0 0 0 -0 -0 -0 -0
0 0 0 0 0 0 0 0 0 0 0 0 0 0 0 0 0 0 0 0 0 0 0 0 0 0 0 0 0 0 0 0 0 0 0 0 0 0 0 -0 -0 -0 -0
0 0 0 0 -0 0 0 0 0 0 0 0 0 0 0 0 0 0 0 0 0 0 1 0 0 0 0 0 0 0 0 0 0 0 0 0 0 0 0 0 0 0 -0
0 0 0 0 0 0 0 0 0 0 0 1 0 0 0 0 0 0 0 0 0 0 0 0 0 0 0 0 0 0 0 0 0 0 0 0 0 0 0 0 0 0 0
0 0 0 0 0 0 0 0 -0 0 0 1 1 1 0 0 0 0 0 0 0 0 -0 0 0 0 0 0 0 0 0 0 0 0 0 0 0 0 0 0 0 0 0
0 0 0 0 0 0 0 0 0 0 0 0 0 0 0 1 0 0 0 0 0 0 0 0 0 0 0 0 0 0 0 -0 0 0 0 0 0 0 0 0 0 0 0
0 0 0 0 0 0 0 0 0 0 0 0 0 0 0 1 1 1 1 1 1 0 0 0 0 0 0 0 0 0 -0 -0 -0 0 0 0 0 0 0 0 0 0 0
-0 -0 0 0 0 0 0 0 0 0 0 -0 -0 -0 -0 0 1 1 1 1 1 1 1 1 0 0 0 0 0 0 0 -0 -0 -0 0 0 0 0 0 0 0 0 0
-0 -0 -0 -0 0 0 0 0 0 0 0 0 0 0 -0 -0 1 1 2 2 1 1 1 1 1 1 1 1 0 0 0 -0 0 0 0 0 0 0 0 0 0 0 0
0 -0 0 -0 0 0 -0 0 0 0 0 0 0 0 -0 -0 0 0 1 1 2 2 1 1 2 2 1 1 0 0 0 0 0 1 0 0 0 0 0 0 0 0 0
0 0 0 -0 -0 -0 -0 0 0 0 0 0 0 0 -0 -0 0 0 1 2 2 2 2 2 2 1 2 2 0 0 0 0 0 1 1 1 0 0 -0 0 0 0 0
0 0 0 0 -0 -0 -0 -0 -0 0 0 0 0 0 0 0 1 1 1 2 2 2 2 2 2 1 1 1 2 0 0 0 0 0 1 1 0 0 0 0 0 0 0
0 0 0 0 0 -0 -0 -0 -0 -0 0 0 0 0 0 0 1 1 2 2 2 2 2 3 2 2 1 1 2 2 2 1 0 1 1 1 0 0 0 0 0 0 0
0 0 0 0 0 0 -0 -0 -0 -0 -0 0 0 0 0 0 0 1 2 0 1 2 2 2 3 2 1 1 1 1 2 2 1 0 2 1 1 1 1 1 1 1 0
Wind_Speed_500mb
57 72 84 81 74 69 69 60 51 50 64 59 51 41 37 31 26 26 22 23 26 29 27 27 25 23 20 21 25 21 16 21 20 11 11 11 12 18 13 11 3 5 6
67 84 95 89 84 77 72 64 55 45 54 54 60 45 43 35 25 26 24 19 24 21 20 34 27 21 26 29 26 20 13 22 11 13 11 13 12 11 11 14 14 6 9
76 81 94 97 91 85 79 70 61 48 47 53 64 50 43 39 37 34 31 20 23 22 23 30 25 21 30 27 25 22 16 21 13 10 6 9 7 7 14 6 7 5 12
79 82 99 102 100 91 81 74 67 57 53 50 70 60 56 54 44 36 28 22 25 23 20 21 22 24 23 28 27 25 22 24 19 14 10 8 11 5 6 8 7 7 12
98 92 89 105 102 94 89 80 71 63 57 57 76 62 55 51 42 38 35 28 22 26 21 15 21 22 24 24 30 30 27 21 19 17 11 10 5 4 5 5 6 10 7
104 94 79 94 100 99 93 83 77 70 64 64 62 71 61 58 49 40 41 34 28 26 25 16 12 21 27 23 29 28 31 20 22 23 15 7 7 12 8 10 16 11 9
87 102 81 87 103 105 101 90 83 78 71 71 67 68 70 62 52 45 43 40 36 30 25 25 20 20 22 24 23 26 31 27 25 20 20 12 4 3 5 13 12 7 8
81 101 104 86 107 107 104 96 89 83 78 75 74 68 73 70 61 52 54 48 44 31 19 20 20 16 18 21 19 23 30 31 28 25 27 18 11 8 8 7 14 16 18
67 90 100 88 98 105 104 104 95 89 84 77 74 76 74 76 71 61 50 52 42 29 32 28 24 21 15 18 23 22 24 30 34 30 29 28 24 16 11 13 11 15 16
73 75 83 89 85 98 103 103 101 93 88 84 76 77 79 78 77 69 53 53 45 38 35 34 32 30 26 21 23 23 28 29 29 28 34 35 31 27 19 14 18 16 20
80 95 86 93 104 83 92 103 106 101 93 87 80 78 83 82 81 79 65 57 53 48 44 41 38 43 34 26 28 27 25 27 29 26 26 26 36 37 32 24 22 23 27
81 89 92 75 87 91 88 99 101 105 103 87 83 78 80 87 83 86 80 65 62 60 54 52 42 46 41 31 30 30 32 31 31 28 25 24 31 33 41 39 32 31 29
16 7 32 55 79 101 91 81 90 99 101 101 87 81 78 84 91 85 86 81 71 65 65 62 54 47 45 37 30 30 31 33 37 35 32 30 30 33 29 32 34 39 36
42 14 15 35 40 51 72 59 66 74 85 100 100 88 82 79 84 89 87 90 83 76 68 64 59 53 51 44 36 32 32 34 36 38 39 36 35 34 35 35 34 34 36
68 52 40 28 19 25 49 55 64 36 71 91 105 99 89 81 76 80 92 90 90 88 80 74 70 64 60 57 52 46 41 38 38 40 42 44 40 39 34 35 36 34 36
64 55 44 51 46 26 28 57 56 62 54 86 104 104 94 90 86 82 81 88 96 95 93 86 82 79 75 71 64 56 51 47 45 44 44 44 45 45 43 40 39 37 40
54 49 44 47 51 45 10 6 29 45 57 70 83 94 94 92 89 84 83 85 87 97 103 98 91 89 86 80 73 66 62 58 55 50 47 46 46 45 45 45 45 46 48
37 50 55 53 51 47 33 18 19 32 34 37 56 68 86 94 85 81 76 76 81 86 96 99 100 95 90 82 75 71 69 67 61 57 51 48 45 44 44 45 48 50 51
38 38 38 43 46 48 38 17 14 39 31 34 32 42 73 90 89 79 76 67 66 72 82 89 91 95 92 83 77 70 69 70 67 61 57 55 51 47 44 47 51 52 54
28 36 39 40 44 49 45 38 19 8 36 74 63 67 55 83 87 88 80 74 68 62 63 73 82 85 84 80 76 71 68 70 70 67 65 63 61 56 53 54 58 63 58
35 29 36 47 42 46 50 38 23 15 25 37 56 39 47 77 105 98 88 83 77 73 70 66 66 71 74 76 74 71 70 70 71 70 68 65 62 60 59 57 62 64 56
37 37 36 40 45 47 48 46 36 25 21 29 26 52 85 86 103 102 97 89 85 81 77 75 73 70 70 69 68 66 66 65 70 71 65 64 62 60 60 62 61 61 55
37 31 37 38 38 44 46 48 43 37 28 25 23 34 74 67 76 89 98 90 88 86 82 79 77 75 73 70 67 63 61 61 67 69 66 63 63 63 63 61 60 55 54
34 31 29 26 43 44 43 49 44 43 38 34 33 28 48 58 64 75 83 85 85 87 87 83 81 76 72 73 71 67 63 62 63 63 65 65 64 64 65 65 64 64 64
39 30 32 35 34 40 48 48 46 46 43 35 32 33 22 44 53 64 70 83 77 78 75 77 77 76 74 74 71 68 63 60 59 58 64 69 68 70 70 70 70 70 70
39 35 37 39 34 35 49 46 46 50 49 42 34 30 21 28 48 60 78 75 75 73 68 61 63 63 62 59 61 60 59 57 53 59 66 64 68 66 61 59 56 57 60
Wind_Direction_500mb
205 196 190 188 191 187 190 195 197 205 199 190 188 183 187 185 175 175 157 148 160 165 164 163 160 152 159 179 156 148 155 171 170 186 184 207 215 233 255 244 271 326 352
193 194 189 188 192 192 195 200 212 212 204 204 191 192 192 190 189 183 169 148 155 168 172 166 162 167 174 161 163 160 165 157 142 166 169 186 212 212 235 254 256 317 316
181 185 189 192 193 197 200 207 213 216 202 203 190 192 189 193 190 190 178 165 158 165 166 171 172 159 174 182 178 166 166 163 154 122 158 156 186 190 197 221 238 274 313
191 186 193 195 197 200 204 209 213 216 209 201 195 195 192 194 198 194 189 182 176 182 184 182 185 176 171 185 177 181 181 171 175 149 138 124 151 218 195 232 241 264 268
195 190 192 201 203 202 204 208 213 216 215 204 202 202 197 197 201 198 193 192 189 186 176 169 193 203 188 177 180 184 178 173 179 170 162 160 154 85 31 77 333 239 249
199 197 192 200 206 204 205 207 211 214 217 212 206 209 203 197 203 207 200 198 199 186 190 196 190 190 191 188 184 187 181 181 186 183 189 206 129 89 64 64 48 44 358
203 199 191 198 205 205 205 208 210 213 218 218 214 210 208 200 206 206 209 208 203 202 204 207 203 190 189 185 195 190 195 192 185 193 201 198 178 153 32 355 313 335 359
200 203 196 201 203 207 207 210 212 215 217 221 220 213 209 207 208 211 216 221 218 209 211 189 183 184 198 200 207 196 195 202 198 200 208 212 219 239 256 333 326 289 281
207 205 205 200 205 209 211 213 215 218 220 222 224 219 214 210 208 214 215 216 218 217 209 204 202 200 205 210 210 205 208 210 212 213 218 223 219 228 253 261 297 319 305
210 200 200 203 207 215 218 218 220 221 222 223 226 224 218 213 210 212 217 213 213 213 214 222 230 223 225 232 222 212 212 214 215 224 228 233 222 226 237 262 259 280 296
189 192 197 205 208 210 216 219 221 222 223 224 227 227 223 216 213 213 214 215 213 215 220 225 241 232 228 238 231 225 213 215 208 216 223 228 223 231 238 244 248 267 277
183 181 193 206 214 211 212 218 222 224 228 227 227 227 228 222 216 215 215 216 220 223 229 233 232 223 226 234 235 230 223 221 214 211 221 223 222 232 238 244 250 257 269
85 109 188 206 210 214 210 211 220 224 227 231 228 228 227 227 223 220 218 218 220 222 228 231 229 221 224 231 235 238 235 232 232 233 236 240 240 243 242 241 259 256 267
41 15 295 246 235 218 206 204 211 228 234 232 233 230 230 229 229 227 223 221 223 223 226 229 232 230 234 237 240 249 250 243 241 241 242 243 242 252 258 262 264 260 265
40 34 25 2 331 274 238 219 215 213 236 238 236 233 234 232 231 232 230 227 227 229 228 231 233 236 240 245 250 253 253 254 249 247 247 249 250 250 253 258 259 264 272
26 26 25 23 12 344 275 244 231 231 247 234 241 238 234 235 234 231 233 233 230 230 231 233 234 237 241 247 250 251 254 256 256 254 251 251 252 252 252 253 259 262 269
18 11 9 8 8 6 265 313 245 228 219 219 229 236 241 237 236 236 234 235 233 232 235 236 235 237 241 244 247 250 255 256 256 258 260 256 254 255 256 258 260 262 267
16 13 5 355 352 358 20 249 223 197 189 209 218 226 241 244 238 233 234 234 234 232 232 237 238 239 242 244 247 250 254 255 253 255 258 258 256 256 261 266 267 266 268
17 5 4 3 355 355 351 18 232 223 208 263 261 245 234 243 241 234 232 233 234 234 232 234 238 240 243 245 246 248 248 251 253 253 254 255 257 259 262 268 272 273 272
15 358 354 357 358 358 359 345 355 223 225 242 263 261 251 238 242 239 235 234 235 238 238 237 238 241 244 246 246 246 247 250 252 254 255 256 258 261 263 265 270 275 278
350 338 331 345 349 347 354 348 340 320 234 253 267 252 261 237 242 243 239 238 238 238 240 242 244 246 245 245 246 246 247 249 252 251 254 256 259 263 266 267 270 273 285
343 340 321 333 335 337 333 339 343 342 305 290 279 239 263 237 236 239 241 237 238 239 240 242 245 248 249 248 246 245 245 245 249 251 253 258 263 265 265 266 269 273 277
324 328 329 315 326 320 323 330 334 337 326 308 295 242 243 236 233 232 235 236 236 238 240 241 244 248 251 253 250 246 243 243 246 251 256 261 265 266 266 264 265 265 260
308 311 316 318 304 301 311 316 325 331 331 318 317 296 248 239 232 229 237 239 238 236 239 243 246 250 252 254 253 248 244 242 244 249 255 260 263 265 266 265 263 263 263
294 298 298 294 278 293 300 308 319 322 326 322 327 320 280 227 228 238 238 238 245 246 244 246 249 252 254 255 253 252 250 247 249 254 255 256 258 259 262 263 262 262 262
276 275 277 274 275 283 290 298 310 313 319 329 329 318 309 226 226 230 238 241 245 249 251 255 258 263 266 267 265 262 262 262 261 260 258 259 259 260 262 266 268 268 264
Wind_Speed_850mb
57 72 84 81 74 69 69 60 51 50 64 59 51 41 37 31 26 26 22 23 26 29 27 27 25 23 20 21 25 21 16 21 20 11 11 11 12 18 13 11 3 5 6
67 84 95 89 84 77 72 64 55 45 54 54 60 45 43 35 25 26 24 19 24 21 20 34 27 21 26 29 26 20 13 22 11 13 11 13 12 11 11 14 14 6 9
76 81 94 97 91 85 79 70 61 48 47 53 64 50 43 39 37 34 31 20 23 22 23 30 25 21 30 27 25 22 16 21 13 10 6 9 7 7 14 6 7 5 12
79 82 99 102 100 91 81 74 67 57 53 50 70 60 56 54 44 36 28 22 25 23 20 21 22 24 23 28 27 25 22 24 19 14 10 8 11 5 6 8 7 7 12
98 92 89 105 102 94 89 80 71 63 57 57 76 62 55 51 42 38 35 28 22 26 21 15 21 22 24 24 30 30 27 21 19 17 11 10 5 4 5 5 6 10 7
104 94 79 94 100 99 93 83 77 70 64 64 62 71 61 58 49 40 41 34 28 26 25 16 12 21 27 23 29 28 31 20 22 23 15 7 7 12 8 10 16 11 9
87 102 81 87 103 105 101 90 83 78 71 71 67 68 70 62 52 45 43 40 36 30 25 25 20 20 22 24 23 26 31 27 25 20 20 12 4 3 5 13 12 7 8
81 101 104 86 107 107 104 96 89 83 78 75 74 68 73 70 61 52 54 48 44 31 19 20 20 16 18 21 19 23 30 31 28 25 27 18 11 8 8 7 14 16 18
67 90 100 88 98 105 104 104 95 89 84 77 74 76 74 76 71 61 50 52 42 29 32 28 24 21 15 18 23 22 24 30 34 30 29 28 24 16 11 13 11 15 16
73 75 83 89 85 98 103 103 101 93 88 84 76 77 79 78 77 69 53 53 45 38 35 34 32 30 26 21 23 23 28 29 29 28 34 35 31 27 19 14 18 16 20
80 95 86 93 104 83 92 103 106 101 93 87 80 78 83 82 81 79 65 57 53 48 44 41 38 43 34 26 28 27 25 27 29 26 26 26 36 37 32 24 22 23 27
81 89 92 75 87 91 88 99 101 105 103 87 83 78 80 87 83 86 80 65 62 60 54 52 42 46 41 31 30 30 32 31 31 28 25 24 31 33 41 39 32 31 29
16 7 32 55 79 101 91 81 90 99 101 101 87 81 78 84 91 85 86 81 71 65 65 62 54 47 45 37 30 30 31 33 37 35 32 30 30 33 29 32 34 39 36
42 14 15 35 40 51 72 59 66 74 85 100 100 88 82 79 84 89 87 90 83 76 68 64 59 53 51 44 36 32 32 34 36 38 39 36 35 34 35 35 34 34 36
68 52 40 28 19 25 49 55 64 36 71 91 105 99 89 81 76 80 92 90 90 88 80 74 70 64 60 57 52 46 41 38 38 40 42 44 40 39 34 35 36 34 36
64 55 44 51 46 26 28 57 56 62 54 86 104 104 94 90 86 82 81 88 96 95 93 86 82 79 75 71 64 56 51 47 45 44 44 44 45 45 43 40 39 37 40
54 49 44 47 51 45 10 6 29 45 57 70 83 94 94 92 89 84 83 85 87 97 103 98 91 89 86 80 73 66 62 58 55 50 47 46 46 45 45 45 45 46 48
37 50 55 53 51 47 33 18 19 32 34 37 56 68 86 94 85 81 76 76 81 86 96 99 100 95 90 82 75 71 69 67 61 57 51 48 45 44 44 45 48 50 51
38 38 38 43 46 48 38 17 14 39 31 34 32 42 73 90 89 79 76 67 66 72 82 89 91 95 92 83 77 70 69 70 67 61 57 55 51 47 44 47 51 52 54
28 36 39 40 44 49 45 38 19 8 36 74 63 67 55 83 87 88 80 74 68 62 63 73 82 85 84 80 76 71 68 70 70 67 65 63 61 56 53 54 58 63 58
35 29 36 47 42 46 50 38 23 15 25 37 56 39 47 77 105 98 88 83 77 73 70 66 66 71 74 76 74 71 70 70 71 70 68 65 62 60 59 57 62 64 56
37 37 36 40 45 47 48 46 36 25 21 29 26 52 85 86 103 102 97 89 85 81 77 75 73 70 70 69 68 66 66 65 70 71 65 64 62 60 60 62 61 61 55
37 31 37 38 38 44 46 48 43 37 28 25 23 34 74 67 76 89 98 90 88 86 82 79 77 75 73 70 67 63 61 61 67 69 66 63 63 63 63 61 60 55 54
34 31 29 26 43 44 43 49 44 43 38 34 33 28 48 58 64 75 83 85 85 87 87 83 81 76 72 73 71 67 63 62 63 63 65 65 64 64 65 65 64 64 64
39 30 32 35 34 40 48 48 46 46 43 35 32 33 22 44 53 64 70 83 77 78 75 77 77 76 74 74 71 68 63 60 59 58 64 69 68 70 70 70 70 70 70
39 35 37 39 34 35 49 46 46 50 49 42 34 30 21 28 48 60 78 75 75 73 68 61 63 63 62 59 61 60 59 57 53 59 66 64 68 66 61 59 56 57 60
Wind_Direction_850mb
205 196 190 188 191 187 190 195 197 205 199 190 188 183 187 185 175 175 157 148 160 165 164 163 160 152 159 179 156 148 155 171 170 186 184 207 215 233 255 244 271 326 352
193 194 189 188 192 192 195 200 212 212 204 204 191 192 192 190 189 183 169 148 155 168 172 166 162 167 174 161 163 160 165 157 142 166 169 186 212 212 235 254 256 317 316
181 185 189 192 193 197 200 207 213 216 202 203 190 192 189 193 190 190 178 165 158 165 166 171 172 159 174 182 178 166 166 163 154 122 158 156 186 190 197 221 238 274 313
191 186 193 195 197 200 204 209 213 216 209 201 195 195 192 194 198 194 189 182 176 182 184 182 185 176 171 185 177 181 181 171 175 149 138 124 151 218 195 232 241 264 268
195 190 192 201 203 202 204 208 213 216 215 204 202 202 197 197 201 198 193 192 189 186 176 169 193 203 188 177 180 184 178 173 179 170 162 160 154 85 31 77 333 239 249
199 197 192 200 206 204 205 207 211 214 217 212 206 209 203 197 203 207 200 198 199 186 190 196 190 190 191 188 184 187 181 181 186 183 189 206 129 89 64 64 48 44 358
203 199 191 198 205 205 205 208 210 213 218 218 214 210 208 200 206 206 209 208 203 202 204 207 203 190 189 185 195 190 195 192 185 193 201 198 178 153 32 355 313 335 359
200 203 196 201 203 207 207 210 212 215 217 221 220 213 209 207 208 211 216 221 218 209 211 189 183 184 198 200 207 196 195 202 198 200 208 212 219 239 256 333 326 289 281
207 205 205 200 205 209 211 213 215 218 220 222 224 219 214 210 208 214 215 216 218 217 209 204 202 200 205 210 210 205 208 210 212 213 218 223 219 228 253 261 297 319 305
210 200 200 203 207 215 218 218 220 221 222 223 226 224 218 213 210 212 217 213 213 213 214 222 230 223 225 232 222 212 212 214 215 224 228 233 222 226 237 262 259 280 296
189 192 197 205 208 210 216 219 221 222 223 224 227 227 223 216 213 213 214 215 213 215 220 225 241 232 228 238 231 225 213 215 208 216 223 228 223 231 238 244 248 267 277
183 181 193 206 214 211 212 218 222 224 228 227 227 227 228 222 216 215 215 216 220 223 229 233 232 223 226 234 235 230 223 221 214 211 221 223 222 232 238 244 250 257 269
85 109 188 206 210 214 210 211 220 224 227 231 228 228 227 227 223 220 218 218 220 222 228 231 229 221 224 231 235 238 235 232 232 233 236 240 240 243 242 241 259 256 267
41 15 295 246 235 218 206 204 211 228 234 232 233 230 230 229 229 227 223 221 223 223 226 229 232 230 234 237 240 249 250 243 241 241 242 243 242 252 258 262 264 260 265
40 34 25 2 331 274 238 219 215 213 236 238 236 233 234 232 231 232 230 227 227 229 228 231 233 236 240 245 250 253 253 254 249 247 247 249 250 250 253 258 259 264 272
26 26 25 23 12 344 275 244 231 231 247 234 241 238 234 235 234 231 233 233 230 230 231 233 234 237 241 247 250 251 254 256 256 254 251 251 252 252 252 253 259 262 269
18 11 9 8 8 6 265 313 245 228 219 219 229 236 241 237 236 236 234 235 233 232 235 236 235 237 241 244 247 250 255 256 256 258 260 256 254 255 256 258 260 262 267
16 13 5 355 352 358 20 249 223 197 189 209 218 226 241 244 238 233 234 234 234 232 232 237 238 239 242 244 247 250 254 255 253 255 258 258 256 256 261 266 267 266 268
17 5 4 3 355 355 351 18 232 223 208 263 261 245 234 243 241 234 232 233 234 234 232 234 238 240 243 245 246 248 248 251 253 253 254 255 257 259 262 268 272 273 272
15 358 354 357 358 358 359 345 355 223 225 242 263 261 251 238 242 239 235 234 235 238 238 237 238 241 244 246 246 246 247 250 252 254 255 256 258 261 263 265 270 275 278
350 338 331 345 349 347 354 348 340 320 234 253 267 252 261 237 242 243 239 238 238 238 240 242 244 246 245 245 246 246 247 249 252 251 254 256 259 263 266 267 270 273 285
343 340 321 333 335 337 333 339 343 342 305 290 279 239 263 237 236 239 241 237 238 239 240 242 245 248 249 248 246 245 245 245 249 251 253 258 263 265 265 266 269 273 277
324 328 329 315 326 320 323 330 334 337 326 308 295 242 243 236 233 232 235 236 236 238 240 241 244 248 251 253 250 246 243 243 246 251 256 261 265 266 266 264 265 265 260
308 311 316 318 304 301 311 316 325 331 331 318 317 296 248 239 232 229 237 239 238 236 239 243 246 250 252 254 253 248 244 242 244 249 255 260 263 265 266 265 263 263 263
294 298 298 294 278 293 300 308 319 322 326 322 327 320 280 227 228 238 238 238 245 246 244 246 249 252 254 255 253 252 250 247 249 254 255 256 258 259 262 263 262 262 262
276 275 277 274 275 283 290 298 310 313 319 329 329 318 309 226 226 230 238 241 245 249 251 255 258 263 266 267 265 262 262 262 261 260 258 259 259 260 262 266 268 268 264